Back to catalog

STARLINK-38024

AliveCommunicationsSSO
NORAD 69975·PAYLOAD·🇺🇸 United States

Launched Jul 11, 2026 from Vandenberg Space Force Base

Loading…

Next Passes (next 24 hours)

TLE

FreshSource: CelesTrak SupGP

Epoch: Sep 14, 2026, 23:36 UTC

1 69975C 26159A   26257.98381944 -.02469300  00000+0 -42596-1 0  2576
2 69975  97.2849  99.7714 0001624  84.4483 310.6980 15.52320610    11

Track STARLINK-38024 in real time with AllMySat

Download on the App Store